| time (UTC) | temp C | wind direction | speed KPH | gust KPH | rain 1hr cm | rain 24hr cm | rain mn cm | humidity % | barometer mb |
| 20260502151516 | 4 | 48 | 0.0 | 4.8 | 0.00 | 0.89 | 0.33 | 87 | 1018.4 |
| 20260502123029 | 2 | 240 | 1.6 | 6.4 | 0.13 | 1.32 | 0.28 | 94 | 1017.7 |
| 20260502121510 | 2 | 30 | 0.0 | 1.6 | 0.10 | 1.30 | 0.23 | 94 | 1017.6 |
| 20260502114517 | 2 | 27 | 1.6 | 9.7 | 0.13 | 1.30 | 0.20 | 93 | 1017.3 |
| 20260502113012 | 2 | 58 | 0.0 | 9.7 | 0.10 | 1.24 | 0.15 | 93 | 1017.2 |
| 20260502111529 | 2 | 216 | 0.0 | 3.2 | 0.10 | 1.22 | 0.13 | 94 | 1017.0 |
| 20260502110017 | 2 | 240 | 0.0 | 1.6 | 0.08 | 1.22 | 0.10 | 93 | 1016.9 |
| 20260502104519 | 2 | 296 | 0.0 | 1.6 | 0.05 | 1.22 | 0.08 | 94 | 1016.7 |
| 20260502103020 | 2 | 153 | 0.0 | 1.6 | 0.03 | 1.19 | 0.05 | 94 | 1016.5 |
| 20260502101507 | 3 | 164 | 0.0 | 4.8 | 0.00 | 1.17 | 0.03 | 94 | 1016.3 |
| 20260502091506 | 3 | 124 | 0.0 | 1.6 | 0.00 | 1.17 | 0.03 | 94 | 1016.2 |
| 20260502071518 | 3 | 20 | 0.0 | 1.6 | 0.00 | 1.17 | 0.00 | 94 | 1016.0 |
| 20260502070020 | 3 | 34 | 0.0 | 1.6 | 0.00 | 1.17 | 0.00 | 94 | 1016.2 |
| 20260502064507 | 3 | 60 | 0.0 | 1.6 | 0.00 | 1.17 | 0.00 | 94 | 1016.1 |
| 20260502063022 | 3 | 25 | 0.0 | 1.6 | 0.00 | 1.17 | 0.00 | 94 | 1016.2 |
| 20260502061509 | 3 | 25 | 0.0 | 3.2 | 0.00 | 1.17 | 0.00 | 94 | 1016.4 |
| 20260502060006 | 3 | 72 | 0.0 | 1.6 | 0.00 | 1.17 | 0.00 | 94 | 1016.5 |
| 20260502054524 | 3 | 1 | 0.0 | 1.6 | 0.00 | 1.17 | 0.00 | 93 | 1016.7 |
| 20260502053024 | 3 | 232 | 0.0 | 0.0 | 0.00 | 1.17 | 0.00 | 93 | 1016.8 |
| 20260502051510 | 3 | 232 | 0.0 | 1.6 | 0.00 | 1.17 | 0.00 | 93 | 1016.8 |
| 20260502050018 | 3 | 113 | 0.0 | 3.2 | 0.00 | 1.17 | 0.00 | 93 | 1016.7 |
| 20260502044512 | 3 | 117 | 0.0 | 3.2 | 0.00 | 1.17 | 0.00 | 93 | 1016.9 |
| 20260502043008 | 3 | 89 | 0.0 | 1.6 | 0.00 | 1.17 | 0.00 | 93 | 1017.0 |
| 20260502041533 | 3 | 105 | 0.0 | 3.2 | 0.03 | 1.17 | 0.00 | 92 | 1017.0 |
| 20260502040013 | 3 | 108 | 0.0 | 1.6 | 0.05 | 1.17 | 0.00 | 92 | 1017.1 |
| 20260502034515 | 3 | 120 | 0.0 | 3.2 | 0.18 | 1.17 | 1.17 | 92 | 1017.0 |
| 20260502033022 | 3 | 152 | 0.0 | 4.8 | 0.23 | 1.17 | 1.17 | 91 | 1017.1 |
| 20260502031516 | 3 | 134 | 0.0 | 1.6 | 0.20 | 1.14 | 1.14 | 91 | 1016.9 |
| 20260502030012 | 4 | 83 | 0.0 | 3.2 | 0.18 | 1.12 | 1.12 | 90 | 1016.7 |
| 20260502024526 | 5 | 243 | 0.0 | 8.0 | 0.05 | 0.99 | 0.99 | 90 | 1016.6 |
| 20260502023018 | 5 | 246 | 0.0 | 0.0 | 0.00 | 0.94 | 0.94 | 90 | 1016.4 |
| 20260502021522 | 5 | 246 | 0.0 | 0.0 | 0.00 | 0.94 | 0.94 | 90 | 1016.4 |
| 20260502020020 | 5 | 246 | 0.0 | 0.0 | 0.00 | 0.94 | 0.94 | 89 | 1016.3 |
| 20260502014526 | 5 | 246 | 0.0 | 0.0 | 0.00 | 0.94 | 0.94 | 89 | 1016.1 |
| 20260502013015 | 5 | 246 | 0.0 | 0.0 | 0.00 | 0.94 | 0.94 | 88 | 1016.0 |
| 20260502011514 | 5 | 245 | 0.0 | 0.0 | 0.00 | 0.94 | 0.94 | 86 | 1016.0 |
| 20260502010023 | 5 | 246 | 0.0 | 0.0 | 0.00 | 0.94 | 0.94 | 85 | 1015.9 |
| 20260502004523 | 5 | 278 | 0.0 | 0.0 | 0.00 | 0.94 | 0.94 | 86 | 1015.9 |
| 20260502003020 | 5 | 278 | 0.0 | 1.6 | 0.00 | 0.94 | 0.94 | 83 | 1015.6 |
| 20260502001512 | 5 | 279 | 0.0 | 1.6 | 0.00 | 0.94 | 0.94 | 81 | 1015.4 |
| 20260502000016 | 6 | 266 | 0.0 | 1.6 | 0.00 | 0.94 | 0.94 | 78 | 1015.2 |
| 20260501234504 | 6 | 257 | 0.0 | 1.6 | 0.00 | 0.94 | 0.94 | 77 | 1014.9 |
| 20260501233004 | 7 | 326 | 0.0 | 3.2 | 0.00 | 0.94 | 0.94 | 76 | 1015.0 |
| 20260501231508 | 7 | 252 | 1.6 | 6.4 | 0.00 | 0.94 | 0.94 | 73 | 1015.1 |
| 20260501230004 | 7 | 255 | 3.2 | 8.0 | 0.00 | 0.94 | 0.94 | 76 | 1015.0 |
| 20260501224515 | 7 | 270 | 1.6 | 4.8 | 0.00 | 0.94 | 0.94 | 76 | 1014.9 |
| 20260501223022 | 7 | 264 | 0.0 | 1.6 | 0.00 | 0.94 | 0.94 | 76 | 1015.0 |
| 20260501221508 | 7 | 49 | 0.0 | 3.2 | 0.00 | 0.94 | 0.94 | 76 | 1014.9 |
| 20260501220010 | 7 | 116 | 0.0 | 3.2 | 0.00 | 0.94 | 0.94 | 75 | 1015.0 |
| 20260501214508 | 7 | 21 | 0.0 | 3.2 | 0.00 | 0.94 | 0.94 | 77 | 1014.9 |
| 20260501213006 | 7 | 87 | 0.0 | 3.2 | 0.00 | 0.94 | 0.94 | 76 | 1014.9 |
| 20260501211521 | 7 | 74 | 0.0 | 8.0 | 0.00 | 0.94 | 0.94 | 77 | 1014.7 |
| 20260501210008 | 6 | 53 | 0.0 | 6.4 | 0.00 | 0.94 | 0.94 | 79 | 1014.4 |
| 20260501204519 | 6 | 51 | 1.6 | 6.4 | 0.00 | 0.94 | 0.94 | 80 | 1014.4 |
| 20260501203014 | 6 | 328 | 3.2 | 11.3 | 0.00 | 0.94 | 0.94 | 82 | 1014.2 |
| 20260501201513 | 6 | 139 | 0.0 | 9.7 | 0.00 | 0.94 | 0.94 | 84 | 1014.3 |
| 20260501200009 | 6 | 32 | 1.6 | 6.4 | 0.00 | 0.94 | 0.94 | 86 | 1014.2 |
| 20260501194510 | 6 | 87 | 0.0 | 11.3 | 0.03 | 0.94 | 0.94 | 88 | 1014.2 |
| 20260501193011 | 5 | 68 | 1.6 | 9.7 | 0.05 | 0.94 | 0.94 | 90 | 1014.1 |
| 20260501191517 | 5 | 70 | 1.6 | 6.4 | 0.05 | 0.94 | 0.94 | 91 | 1014.0 |
| 20260501190019 | 5 | 45 | 1.6 | 11.3 | 0.08 | 0.94 | 0.94 | 91 | 1013.9 |
| 20260501184516 | 5 | 46 | 1.6 | 9.7 | 0.05 | 0.91 | 0.91 | 92 | 1013.8 |
| 20260501183013 | 5 | 81 | 1.6 | 6.4 | 0.05 | 0.89 | 0.89 | 91 | 1013.7 |
| 20260501181515 | 5 | 60 | 0.0 | 4.8 | 0.05 | 0.89 | 0.89 | 92 | 1013.5 |
| 20260501180020 | 5 | 231 | 0.0 | 4.8 | 0.05 | 0.86 | 0.86 | 91 | 1013.4 |
| 20260501174533 | 5 | 4 | 0.0 | 3.2 | 0.05 | 0.86 | 0.86 | 92 | 1013.3 |
| 20260501173020 | 5 | 44 | 0.0 | 4.8 | 0.03 | 0.84 | 0.84 | 92 | 1013.1 |
| 20260501171517 | 5 | 62 | 0.0 | 4.8 | 0.05 | 0.84 | 0.84 | 92 | 1013.2 |
| 20260501170015 | 5 | 27 | 0.0 | 3.2 | 0.05 | 0.81 | 0.81 | 92 | 1013.3 |
| 20260501164523 | 5 | 35 | 0.0 | 6.4 | 0.08 | 0.89 | 0.81 | 91 | 1013.0 |
| 20260501163022 | 6 | 102 | 0.0 | 3.2 | 0.13 | 0.89 | 0.81 | 93 | 1013.1 |
| 20260501161525 | 5 | 128 | 0.0 | 4.8 | 0.18 | 0.86 | 0.79 | 93 | 1013.3 |